Regional Weather Roundup
Issued by NWS

Home | Current Version | Previous Version | Graphics & Text | Print | Product List | Glossary On
Versions: 1 2 3 4 5 6 7 8 9 10 11 12 13 14 15 16 17 18 19 20 21 22 23 24 25 26 27 28 29 30 31 32 33 34 35 36 37 38 39 40 41 42 43 44 45 46 47 48 49 50
000
ASUS43 KOAX 210402
RWRNE

WEATHER ROUNDUP FOR NEBRASKA
NATIONAL WEATHER SERVICE OMAHA NE
1100 PM CDT THU JUL 20 2017

NOTES: SATELLITE DATA IS BEING USED TO AUGMENT CLOUD COVER ABOVE
       12000 FEET.
       "FAIR" INDICATES FEW OR NO CLOUDS BELOW 12,000 FEET WITH NO
       SIGNIFICANT WEATHER AND/OR OBSTRUCTIONS TO VISIBILITY.


NEZ001>004-019>022-054>056-210500-
NEBRASKA PANHANDLE

CITY           SKY/WX    TMP DP  RH WIND       PRES   REMARKS
SCOTTSBLUFF    PTCLDY    79  61  53 SE6       29.98R
ALLIANCE       PTCLDY    76  61  59 CALM      29.98R
CHADRON        PTCLDY    83  60  45 S12       29.91R
GORDON         FAIR      74  65  74 SE6       29.95R
KIMBALL        CLOUDY    75  58  55 S6        30.08R
SIDNEY         PTCLDY    75  62  64 S7        30.03R
$$

NEZ057>060-069>072-079>082-210500-
SOUTHWEST NEBRASKA

CITY           SKY/WX    TMP DP  RH WIND       PRES   REMARKS
NORTH PLATTE   CLEAR     79  75  87 E10       29.89F
IMPERIAL       PTCLDY    81  67  62 W5        29.92S
LEXINGTON      CLEAR     81  75  82 SE9       29.89F
MCCOOK         CLEAR     84  62  47 S9        29.88R
OGALLALA       PTCLDY    82  67  60 CALM      29.93F
$$

NEZ005>010-023>029-035>040-094-210500-
NORTH CENTRAL NEBRASKA

CITY           SKY/WX    TMP DP  RH WIND       PRES   REMARKS
VALENTINE      CLEAR     81  63  54 E6        29.93R
AINSWORTH      CLEAR     77  73  88 SE7       29.94S
BROKEN BOW     CLEAR     79  75  87 SE7       29.91S
O`NEILL        CLEAR     77  76  98 E7        29.92S
ORD            CLEAR     77  71  82 CALM      29.88F
THEDFORD       CLEAR     80  70  71 SE6       29.95R
$$

NEZ041-046>049-061>064-073>077-083>087-210500-
SOUTH CENTRAL NEBRASKA

CITY           SKY/WX    TMP DP  RH WIND       PRES   REMARKS
GRAND ISLAND   CLEAR     83  76  79 SE12      29.89S HX  91
AURORA         CLEAR     80  77  91 SE7       29.89S
HASTINGS       CLEAR     84  72  67 SE10      29.91R
HEBRON         CLEAR     88  66  48 S13       29.90R HX  90
HOLDREGE       CLEAR     78  74  86 SE7       29.90S
KEARNEY        CLEAR     78  75  90 SE8       29.89F
YORK           CLEAR     82  75  78 SE9       29.90R
$$

NEZ011>018-030>034-042>045-210500-
NORTHEAST NEBRASKA

CITY           SKY/WX    TMP DP  RH WIND       PRES   REMARKS
NORFOLK        CLEAR     77  68  73 SE7       29.89F
ALBION         CLEAR     79  74  85 E5        29.91S
BLAIR          CLOUDY    84  77  80 E3        29.90F HX  93
COLUMBUS       CLEAR     80  76  87 E7        29.90R
FREMONT        CLOUDY    85  76  74 E5        29.90S HX  94
TEKAMAH        PTCLDY    78  70  76 S3        29.89S
WAYNE          CLEAR     75  75  99 CALM      29.92S
$$

NEZ050>053-065>068-078-088>093-210500-
SOUTHEAST NEBRASKA

CITY           SKY/WX    TMP DP  RH WIND       PRES   REMARKS
LINCOLN        CLEAR     85  71  63 S8        29.89S HX  90
OMAHA EPPLEY   CLOUDY    87  76  69 SE9       29.88F HX  97
BEATRICE       CLEAR     86  72  62 SE9       29.90S HX  91
FALLS CITY     CLEAR     85  74  69 S9        29.90S HX  92
NEBRASKA CITY  CLEAR     83  78  83 S9        29.90F HX  93
PLATTSMOUTH    CLEAR     83  77  82 SE6       29.90F HX  92
$$

NEZ044-045-051>053-067-210500-
OMAHA AREA

CITY           SKY/WX    TMP DP  RH WIND       PRES   REMARKS
OMAHA EPPLEY   CLOUDY    87  76  69 SE9       29.88F HX  97
BLAIR          CLOUDY    84  77  80 E3        29.90F HX  93
FREMONT        CLOUDY    85  76  74 E5        29.90S HX  94
MILLARD        CLOUDY    88  80  78 SE5       29.89F HX 104
OFFUTT AFB     CLEAR     83  77  81 E5        29.88F HX  93
PLATTSMOUTH    CLEAR     83  77  82 SE6       29.90F HX  92
WAHOO          FAIR      82  78  88 E5        29.90S HX  92
$$



USA.gov is the U.S. government's official web portal to all federal, state and local government web resources and services.